Charleston, WV

7:49 AM EDT on June 28, 2017 (GMT -0400)
Yeager Airport

Weather History for KCRW - July, 2013

Change the Weather History Date:

Thursday, July 4, 2013

  Actual Average Record
Temperature  
Mean Temperature 77 °F 75 °F  
Max Temperature 87 °F 85 °F 108 °F (1931)
Min Temperature 67 °F 65 °F 50 °F (1963)
Degree Days  
Heating Degree Days 0 0  
Month to date heating degree days 0 0  
Since 1 June heating degree days 0 13  
Since 1 July heating degree days 0 0  
Cooling Degree Days 12 10  
Month to date cooling degree days 43 40  
Year to date cooling degree days 425 370  
Since 1 June cooling degree days 278 260  
Growing Degree Days 26 (Base 50)    
Moisture  
Dew Point 68 °F    
Average Humidity 76    
Maximum Humidity 97    
Minimum Humidity 55    
Precipitation  
Precipitation 0.66 in 0.15 in 2.11 in (1951)
Month to date precipitation 1.26 0.57  
Year to date precipitation 23.81 23.00  
Snow  
Snow 0.00 in - - ()
Month to date snowfall 0.0  
Since 1 September snowfall 25.3  
Snow Depth 0.00 in    
Sea Level Pressure  
Sea Level Pressure 30.16 in    
Wind  
Wind Speed 1 mph (East)    
Max Wind Speed 23 mph    
Max Gust Speed 31 mph    
Visibility 8 miles    
Events Rain , Hail , Thunderstorm    
T = Trace of Precipitation, MM = Missing Value Source: NWS Daily Summary

Daily Weather History Graph

Daily Weather History Graph

Search for Another Location

Airport or City:

Trip Planner

Search our weather history database for the weather conditions in past years. The results will help you decide how hot, cold, wet, or windy it might be!

Date:

Astronomy

Jul. 04, 2013 Rise Set
Actual Time 6:07 AM EDT 8:53 PM EDT
Civil Twilight 5:36 AM EDT 9:24 PM EDT
Nautical Twilight 4:57 AM EDT 10:04 PM EDT
Astronomical Twilight 4:12 AM EDT 10:48 PM EDT
Moon 3:22 AM EDT (7/4) 5:57 PM EDT (7/4)
Length of Visible Light 15h 48m
Length of Day
14h 45m
Waning Crescent, 11% of the Moon is Illuminated
Jul 4
Waning Crescent
Jul 8
New
Jul 15
First Quarter
Jul 22
Full
Jul 29
Last Quarter

Hourly Weather History & Observations

Time (EDT) Temp. Heat Index Dew Point Humidity Pressure Visibility Wind Dir Wind Speed Gust Speed Precip Events Conditions
12:54 AM 70.0 °F - 66.9 °F 90% 30.13 in 10.0 mi Calm Calm - N/A   Mostly Cloudy
1:54 AM 69.1 °F - 66.9 °F 93% 30.14 in 10.0 mi Calm Calm - N/A   Overcast
2:54 AM 69.1 °F - 66.0 °F 90% 30.15 in 10.0 mi Calm Calm - N/A   Mostly Cloudy
3:54 AM 68.0 °F - 66.0 °F 93% 30.16 in 10.0 mi Calm Calm - N/A   Mostly Cloudy
4:54 AM 68.0 °F - 66.0 °F 93% 30.17 in 10.0 mi Calm Calm - 0.00 in Rain Light Rain
5:54 AM 68.0 °F - 66.0 °F 93% 30.17 in 6.0 mi Calm Calm - 0.01 in Rain Light Rain
6:46 AM 68.0 °F - 66.2 °F 94% 30.22 in 1.2 mi Calm Calm - 0.00 in   Mostly Cloudy
6:54 AM 68.0 °F - 66.0 °F 93% 30.20 in 6.0 mi Calm Calm - 0.00 in   Mostly Cloudy
7:54 AM 69.1 °F - 66.0 °F 90% 30.22 in 4.0 mi ESE 4.6 mph - 0.01 in Rain Light Rain
8:54 AM 70.0 °F - 66.9 °F 90% 30.21 in 7.0 mi East 3.5 mph - 0.00 in   Mostly Cloudy
9:54 AM 73.0 °F - 66.9 °F 81% 30.20 in 10.0 mi Calm Calm - 0.00 in Rain Light Rain
10:54 AM 75.9 °F - 68.0 °F 76% 30.19 in 10.0 mi Calm Calm - 0.00 in   Mostly Cloudy
11:54 AM 79.0 °F - 68.0 °F 69% 30.18 in 10.0 mi Calm Calm - N/A   Mostly Cloudy
12:54 PM 81.0 °F 83.8 °F 68.0 °F 65% 30.16 in 10.0 mi Variable 3.5 mph - N/A   Mostly Cloudy
1:11 PM 82.4 °F 85.4 °F 68.0 °F 62% 30.19 in 10.0 mi Calm Calm - N/A   Mostly Cloudy
1:44 PM 82.4 °F 86.3 °F 69.8 °F 66% 30.18 in 10.0 mi Calm Calm - N/A   Mostly Cloudy
1:54 PM 82.9 °F 85.8 °F 68.0 °F 60% 30.15 in 10.0 mi Calm Calm - N/A   Mostly Cloudy
2:54 PM 84.9 °F 87.6 °F 66.9 °F 55% 30.12 in 10.0 mi Calm Calm - N/A   Mostly Cloudy
3:47 PM 82.4 °F 86.3 °F 69.8 °F 66% 30.13 in 10.0 mi NW 5.8 mph 16.1 mph N/A Thunderstorm Thunderstorm
3:54 PM 82.9 °F 87.0 °F 70.0 °F 65% 30.10 in 10.0 mi Variable 4.6 mph - N/A Thunderstorm Thunderstorm
4:48 PM 75.2 °F - 71.6 °F 89% 30.14 in 4.0 mi South 18.4 mph 28.8 mph 0.19 in Rain , Thunderstorm Heavy Thunderstorms with Small Hail
4:54 PM 73.0 °F - 66.9 °F 81% 30.11 in 4.0 mi ESE 6.9 mph 31.1 mph 0.32 in Rain , Hail , Thunderstorm Heavy Thunderstorms with Hail
5:01 PM 71.6 °F - 66.2 °F 83% 30.16 in 7.0 mi SE 11.5 mph 20.7 mph 0.10 in Rain , Thunderstorm Light Thunderstorms and Rain
5:54 PM 72.0 °F - 68.0 °F 87% 30.13 in 6.0 mi WNW 3.5 mph - 0.28 in Rain , Thunderstorm Light Thunderstorms and Rain
6:36 PM 73.4 °F - 69.8 °F 88% 30.13 in 7.0 mi ESE 3.5 mph - 0.04 in   Mostly Cloudy
6:54 PM 72.0 °F - 68.0 °F 87% 30.12 in 9.0 mi Calm Calm - 0.04 in   Mostly Cloudy
7:54 PM 72.0 °F - 69.1 °F 91% 30.14 in 10.0 mi ENE 5.8 mph - N/A   Mostly Cloudy
8:54 PM 71.1 °F - 68.0 °F 90% 30.12 in 10.0 mi Calm Calm - N/A   Mostly Cloudy
9:34 PM 69.8 °F - 66.2 °F 88% 30.14 in 7.0 mi NE 3.5 mph - N/A   Mostly Cloudy
9:54 PM 70.0 °F - 68.0 °F 93% 30.12 in 7.0 mi Calm Calm - N/A   Mostly Cloudy
10:42 PM 69.8 °F - 68.0 °F 94% 30.17 in 5.0 mi Calm Calm - N/A   Mostly Cloudy
10:46 PM 69.8 °F - 68.0 °F 94% 30.16 in 5.0 mi Calm Calm - N/A   Scattered Clouds
10:54 PM 71.1 °F - 68.0 °F 90% 30.14 in 5.0 mi Calm Calm - N/A   Scattered Clouds
11:54 PM 70.0 °F - 68.0 °F 93% 30.14 in 4.0 mi Calm Calm - N/A   Mostly Cloudy